GFSNE_sfc_30mbdewp_273.txt.gz
Dewpoint
47 47 47 46 48 49 50 51 50 49 49 51 54 55 57 59 60 60 60 59 58 57 55 55 55 55 56 57 58 60 60 59 58 58 59 57 57 57
43 43 43 43 43 43 45 46 48 46 47 51 53 54 56 56 55 56 58 58 57 56 55 54 53 53 54 55 55 56 58 59 59 58 59 58 57 56
40 40 40 40 40 40 41 41 41 42 43 45 46 49 48 49 48 49 52 55 56 56 54 53 52 51 52 52 53 54 55 56 57 58 58 58 57 57
38 38 38 38 38 38 39 38 39 39 40 39 41 43 43 43 43 45 46 45 46 46 47 52 52 51 50 50 50 51 52 53 54 55 56 57 57 57
37 37 36 36 36 37 37 37 37 37 38 38 37 39 40 40 41 41 41 42 42 43 47 49 51 51 49 48 48 48 49 49 51 52 54 55 56 56
37 37 36 35 35 35 35 36 35 35 36 36 36 37 38 40 39 38 38 39 40 42 44 43 47 48 49 48 47 47 47 47 48 49 50 52 53 54
34 35 35 36 36 36 34 33 33 33 33 33 34 35 35 36 36 37 37 38 38 43 41 40 42 45 47 48 48 47 46 46 46 47 48 49 50 51
32 31 31 31 32 35 34 34 34 33 31 32 33 32 32 34 35 34 35 35 34 38 38 39 42 43 44 44 43 43 44 45 45 45 46 46 47 49
30 29 29 29 31 29 30 31 31 33 33 33 32 33 33 33 34 34 34 35 35 38 38 38 40 42 43 42 40 42 42 42 44 44 44 45 45 46
28 27 27 27 27 27 27 28 29 30 32 32 32 32 33 33 34 35 36 37 38 39 39 36 40 39 42 41 40 40 40 40 41 42 42 42 41 41
26 27 27 27 28 29 28 26 27 28 31 34 34 34 33 33 34 35 34 35 34 36 39 38 38 37 38 39 39 38 38 39 40 40 40 40 41 41
20 22 26 26 24 26 27 26 24 24 28 32 33 33 33 33 33 34 34 33 33 33 38 37 37 36 35 36 36 37 37 37 38 39 39 40 40 40
19 20 20 21 22 23 24 24 25 29 28 30 32 32 33 33 33 34 35 35 33 33 37 37 36 36 35 34 35 36 37 36 36 37 37 38 39 39
17 18 20 20 20 20 21 21 22 25 26 28 30 31 31 31 32 33 34 35 36 35 37 37 34 35 34 33 34 36 36 37 37 37 37 37 37 38
17 18 18 18 19 19 19 20 21 22 23 25 26 29 31 32 33 34 34 35 36 36 36 36 35 35 34 34 34 34 34 36 35 34 34 36 37 37
16 17 17 17 17 17 18 20 20 20 20 22 25 27 32 32 32 33 32 33 32 33 35 36 35 35 33 34 34 33 34 32 35 35 35 35 36 36
15 15 14 15 14 15 15 16 17 17 18 20 21 25 28 31 31 33 32 31 30 31 32 32 33 34 34 33 31 33 33 32 33 33 33 32 34 35
13 13 13 13 12 13 13 14 15 15 16 18 20 23 26 29 30 32 32 31 30 31 31 32 31 30 31 32 33 32 32 32 33 33 31 30 31 34
12 12 11 11 11 12 12 13 13 14 16 18 19 23 27 31 30 30 31 31 30 31 31 32 31 30 29 28 31 32 30 30 31 30 31 31 30 29
11 10 10 11 11 11 11 12 12 13 15 16 17 20 22 25 29 30 30 30 30 31 30 31 31 31 29 29 29 31 31 29 30 31 29 31 30 31
9 9 10 10 11 10 11 11 12 12 13 15 16 18 19 21 23 28 30 30 30 30 30 31 32 33 33 31 29 29 30 30 30 30 30 29 28 29
7 8 8 9 9 10 10 11 11 11 12 13 14 16 17 19 21 24 28 30 30 31 31 32 31 31 30 30 29 28 26 29 30 29 29 30 29 27
6 7 7 8 8 8 8 9 9 10 11 12 13 13 14 16 19 22 27 30 30 30 30 30 30 30 31 30 29 27 26 27 27 26 26 28 28 29

GFSNE_sfc_30mbdewp_279.txt.gz
Dewpoint
53 55 55 53 51 50 51 51 51 48 44 42 43 51 50 48 49 48 50 50 51 49 45 47 50 52 52 53 54 55 56 57 58 62 61 61 61 61
49 46 45 45 44 45 45 45 46 47 43 37 39 41 44 44 41 43 44 44 50 44 45 45 49 50 51 51 51 53 54 55 56 58 60 61 61 60
43 42 42 43 43 42 42 41 40 41 40 39 38 39 41 41 42 42 41 41 41 42 43 44 45 48 48 50 50 50 51 52 53 55 57 59 59 60
41 41 40 40 40 40 39 40 39 39 38 37 37 38 38 40 41 40 38 38 40 40 40 43 44 43 44 48 48 49 48 49 49 51 53 55 58 59
39 38 37 37 36 37 36 36 36 35 36 36 35 37 38 39 38 37 37 37 36 35 36 38 41 41 43 47 47 47 46 46 46 47 48 50 52 55
36 36 34 33 33 33 32 33 32 33 33 34 34 35 36 36 36 35 35 35 35 36 36 40 38 39 42 46 44 42 42 42 44 45 46 46 47 49
32 32 32 32 32 30 28 29 29 30 31 31 32 33 33 33 33 34 34 34 34 36 37 37 36 37 40 44 43 41 40 40 41 42 44 45 45 45
30 30 28 32 32 30 28 26 27 28 28 29 30 31 31 31 32 32 33 31 31 34 35 34 35 36 37 40 41 40 40 39 40 41 41 42 43 44
28 28 25 27 26 22 21 20 22 27 29 28 28 30 31 31 33 33 31 29 30 32 33 34 35 36 37 41 41 40 39 40 40 40 40 41 41 42
21 23 20 20 23 22 21 20 20 20 21 24 26 27 28 29 30 30 30 30 31 33 32 33 36 37 39 39 40 39 39 39 39 40 40 40 40 41
17 21 19 20 21 22 20 19 20 21 21 21 22 23 22 24 27 28 29 30 28 30 33 34 34 35 38 39 40 40 38 38 38 39 40 40 42 42
15 16 22 21 20 20 20 19 19 18 19 21 22 22 23 25 27 31 31 30 30 29 30 35 36 36 36 41 40 41 41 39 38 37 38 39 40 42
17 18 19 20 20 20 20 20 18 20 21 22 23 24 25 25 26 27 29 33 31 31 33 33 32 33 33 34 38 37 38 40 40 39 37 37 38 39
19 20 20 20 20 20 20 19 20 22 23 23 22 23 23 24 26 28 27 29 31 33 35 32 34 34 34 33 33 36 38 39 39 39 41 39 38 37
20 22 20 19 19 21 20 21 22 21 21 21 21 22 22 24 25 26 29 28 30 30 31 33 33 34 33 32 32 34 36 38 39 39 39 38 37 37
20 24 23 22 21 21 22 21 21 21 20 21 21 21 23 23 24 26 27 29 29 29 32 34 35 35 32 33 33 33 36 35 37 36 37 37 37 38
21 23 21 20 19 19 19 19 19 19 19 20 20 21 21 22 23 24 25 27 29 29 29 31 34 36 35 33 32 33 34 35 37 36 35 34 34 34
19 18 19 18 18 17 18 18 18 18 19 19 20 20 20 21 21 22 23 25 27 29 31 32 32 31 30 31 33 32 33 35 36 35 34 33 32 33
16 17 17 18 17 17 17 17 17 17 18 19 19 19 20 20 20 21 22 23 25 27 29 33 33 31 28 28 33 35 33 34 34 33 33 30 30 31
15 15 16 17 16 16 16 16 16 17 17 17 18 19 19 19 19 19 20 21 23 24 26 29 32 32 30 29 31 32 33 33 32 29 29 32 33 35
12 14 15 15 15 16 16 16 16 16 17 17 17 17 17 17 17 17 18 20 22 24 25 28 33 35 34 33 30 30 30 30 29 28 28 29 30 30
13 15 15 15 15 15 15 15 15 14 15 15 15 16 16 16 16 16 18 19 20 23 25 28 33 32 31 30 30 31 29 29 29 27 28 28 29 28
14 14 14 14 14 14 14 13 12 13 14 14 14 15 14 13 15 16 18 20 21 23 27 31 31 31 30 30 31 31 29 29 30 29 30 29 29 29

GFSNE_sfc_30mbdewp_282.txt.gz
Dewpoint
54 53 52 52 52 52 53 52 53 50 46 43 48 47 46 46 44 44 46 47 45 47 46 46 48 50 51 52 53 54 54 55 56 57 59 62 62 62
50 49 49 49 48 48 47 47 46 46 44 43 41 44 44 43 42 45 44 43 46 45 44 43 44 45 48 50 51 51 52 53 54 55 56 60 60 60
45 44 44 44 45 45 44 42 41 40 39 40 40 40 41 41 44 42 41 40 46 43 42 42 43 43 44 46 48 49 49 50 51 52 54 56 60 61
39 39 39 39 39 39 40 40 40 38 38 37 38 39 40 41 41 39 39 39 39 38 38 40 41 42 42 45 47 46 46 46 47 49 50 53 54 58
35 34 34 34 33 33 36 35 35 35 35 36 35 37 38 38 37 38 37 37 37 36 35 36 40 41 40 44 46 44 43 42 43 45 46 48 50 52
34 33 32 31 30 29 30 29 30 31 32 34 34 34 36 36 36 34 33 34 35 35 36 38 39 38 40 45 43 41 40 40 40 41 42 44 46 47
35 33 34 30 27 28 25 24 26 28 30 30 31 31 31 32 32 32 31 31 32 33 36 35 35 36 38 44 42 41 40 40 40 40 40 41 43 44
31 32 29 26 26 24 23 23 23 23 27 28 28 28 27 28 31 31 31 30 29 32 31 31 33 34 36 38 41 40 40 40 40 40 40 39 40 41
25 23 21 23 23 23 22 23 23 23 25 27 25 24 25 26 27 29 29 28 28 30 29 29 32 33 35 37 41 40 40 40 40 40 40 40 39 40
23 22 22 21 22 22 21 21 22 23 22 20 21 22 23 23 24 21 23 25 28 30 31 28 32 33 35 37 37 40 40 39 39 39 40 40 40 40
24 24 22 21 21 21 21 21 21 20 20 21 24 26 26 26 27 27 26 26 27 27 29 29 30 30 33 34 37 40 40 39 38 38 39 40 41 42
20 21 22 21 21 21 22 21 19 20 21 23 23 23 24 25 25 27 27 28 29 28 30 30 30 30 28 32 39 41 40 40 39 38 38 39 39 41
20 21 21 21 21 21 21 21 21 21 24 23 23 23 24 25 24 25 25 25 26 26 29 33 33 32 31 30 30 32 35 37 39 39 38 38 37 39
20 22 25 20 20 20 22 22 22 23 23 21 21 22 21 21 23 24 25 27 28 28 30 30 31 33 31 30 28 33 35 36 39 39 40 40 38 37
21 23 23 21 21 22 21 22 22 22 22 21 21 20 20 22 24 24 25 26 27 28 29 31 31 32 33 30 29 31 31 32 34 35 38 39 38 38
21 24 22 21 20 20 20 21 21 21 20 21 20 20 22 21 21 22 23 23 24 24 27 29 31 30 29 29 31 31 33 32 36 37 37 37 38 38
21 20 19 18 18 18 18 18 18 18 18 18 19 20 19 19 20 20 21 21 22 23 24 27 31 32 32 32 31 32 32 32 35 36 36 35 35 36
18 17 17 17 17 16 16 16 17 17 17 18 18 18 18 18 18 19 19 20 21 21 22 24 26 28 32 33 34 31 32 32 34 35 36 35 34 33
15 16 16 16 15 15 15 15 15 16 16 16 16 17 17 17 17 16 17 18 18 19 20 22 23 26 27 27 30 34 31 32 33 34 35 34 32 31
14 14 14 14 14 14 14 14 15 15 15 14 15 16 16 16 15 15 15 16 17 17 18 20 23 26 28 28 29 32 33 32 32 31 31 32 33 32
14 13 14 14 14 14 14 14 14 13 13 14 14 15 15 15 13 13 14 14 16 17 18 19 22 26 30 32 29 30 31 32 32 31 30 28 28 30
13 13 13 14 14 14 13 13 11 11 12 13 13 14 14 14 12 12 13 14 15 17 19 21 24 30 30 29 29 30 29 29 30 30 28 27 28 28
12 12 13 13 13 12 11 11 10 10 11 13 13 12 11 11 12 13 14 15 16 17 20 23 29 32 30 30 30 30 29 29 29 27 28 28 28 28

GFSNE_sfc_30mbdewp_285.txt.gz
Dewpoint
55 57 57 54 54 53 53 55 53 51 50 47 47 46 45 45 45 46 43 43 45 47 46 44 44 45 47 48 50 51 52 54 55 56 56 57 58 61
46 47 47 49 49 48 48 47 49 49 46 46 44 42 44 43 42 42 41 46 45 44 42 41 43 44 44 44 45 48 50 50 51 53 54 55 57 60
39 39 39 40 43 44 44 42 41 43 43 42 41 40 41 40 38 39 40 39 39 39 38 38 39 41 42 42 44 45 46 47 48 49 50 52 55 57
35 34 34 34 34 34 34 33 35 36 38 37 38 36 37 37 37 38 36 35 36 36 36 35 38 40 43 41 45 45 45 44 43 44 46 47 49 52
33 32 30 29 27 27 27 29 31 32 34 35 35 37 36 34 36 35 34 34 33 33 33 35 37 37 38 42 45 44 43 41 40 40 41 42 44 47
32 31 29 28 27 25 23 24 25 28 30 31 32 31 31 32 32 31 31 32 32 32 32 34 34 34 36 42 43 42 40 40 40 40 40 40 40 42
30 29 28 27 27 28 26 26 25 25 27 28 29 30 30 30 30 31 29 30 30 31 33 30 29 30 32 34 36 41 41 40 40 40 40 40 39 39
26 27 26 26 25 26 25 25 26 22 22 23 22 22 21 22 22 22 24 25 24 30 26 27 29 29 31 33 34 37 41 40 40 40 40 39 39 39
23 22 22 24 24 23 23 24 23 22 22 21 21 22 23 24 25 24 24 23 23 25 27 27 30 30 32 33 36 38 40 39 40 39 39 39 39 39
23 22 22 22 23 23 23 21 20 20 22 23 25 25 25 26 26 26 27 26 26 27 29 27 29 29 31 33 33 35 37 38 40 39 38 38 39 39
22 23 23 22 22 22 21 20 20 21 22 24 23 24 24 25 26 25 24 23 22 24 27 30 30 30 31 32 33 36 38 38 39 39 38 39 39 40
21 23 24 22 22 21 22 22 20 21 23 22 22 23 24 24 22 24 24 23 22 21 26 25 25 29 28 29 31 31 33 35 34 34 35 38 38 39
21 22 25 21 21 21 22 21 21 23 23 22 22 22 21 21 22 23 24 25 24 23 25 28 27 27 28 26 28 30 30 31 35 37 36 38 39 38
21 24 21 19 20 20 20 19 20 22 21 21 20 19 19 20 22 22 23 24 26 26 26 27 28 29 28 26 27 30 29 31 32 33 36 38 39 38
22 19 18 18 19 19 18 18 20 20 19 18 17 18 20 22 21 21 22 22 22 23 24 26 27 29 30 30 28 27 27 29 31 31 33 34 34 37
20 19 18 18 17 17 17 17 18 18 18 17 17 19 19 19 19 20 20 20 20 20 22 24 25 27 28 30 30 29 29 28 29 31 33 34 37 38
17 16 15 15 14 14 15 15 15 15 16 16 16 16 16 17 17 18 18 18 18 18 19 20 22 24 25 26 27 29 30 30 31 33 32 31 34 36
14 13 13 13 12 13 13 13 13 14 14 15 14 14 15 15 15 15 16 16 16 16 17 18 20 20 21 23 28 30 31 31 31 33 33 32 32 35
12 12 12 12 12 12 12 13 12 13 14 13 13 14 14 14 13 14 14 14 14 14 15 16 18 19 19 19 23 32 31 31 32 31 33 32 32 34
11 11 11 12 12 12 12 12 11 11 11 11 11 12 12 12 12 12 12 12 12 13 13 15 17 20 20 20 23 25 30 32 31 31 31 33 33 34
10 10 10 11 11 11 11 10 10 9 10 10 10 11 12 12 10 10 10 11 11 13 13 14 17 20 24 25 24 28 30 34 33 31 31 29 28 28
9 10 10 11 11 11 11 10 9 9 9 10 11 11 10 10 9 10 10 11 11 13 14 16 18 21 24 26 27 29 30 30 31 31 31 31 28 24
9 10 11 10 11 11 10 10 10 10 11 9 9 9 10 9 10 11 11 12 13 13 15 16 19 23 25 30 29 29 30 28 28 27 28 30 30 29

GFSNE_sfc_30mbdewp_288.txt.gz
Dewpoint
41 43 45 45 47 49 49 56 56 52 47 47 45 49 48 46 45 45 45 46 47 46 44 42 45 44 44 46 45 47 50 52 53 54 55 56 56 57
36 36 36 38 40 40 41 41 44 52 45 45 45 46 45 44 44 45 41 42 38 38 37 37 39 40 42 44 44 46 47 48 50 51 52 53 54 55
32 32 33 33 33 36 37 38 38 45 42 42 43 42 40 40 41 39 38 36 38 35 36 38 38 38 41 41 42 44 45 46 46 46 47 48 50 51
29 28 29 30 30 31 32 33 35 37 40 37 39 38 36 39 38 36 34 33 34 34 33 37 36 36 37 40 43 43 45 42 40 40 41 42 43 46
28 27 28 29 29 30 30 31 32 34 35 36 34 33 32 34 33 33 32 33 30 30 32 33 32 33 34 34 41 43 42 40 40 40 40 40 40 41
27 28 28 28 28 29 29 30 30 30 31 31 31 31 31 30 30 28 29 31 30 29 34 28 29 30 31 33 34 36 40 40 41 40 40 39 39 39
26 26 27 28 29 29 26 24 25 26 26 26 25 24 23 24 24 24 24 25 25 32 25 26 28 30 30 32 33 34 35 38 41 40 40 39 39 39
23 25 25 26 26 24 22 23 23 22 22 23 24 23 24 24 25 26 25 24 23 28 26 26 29 29 31 32 32 34 35 37 40 40 40 39 39 39
22 22 23 24 24 22 21 21 22 24 25 24 23 23 23 25 26 25 26 26 25 26 27 27 29 29 31 31 32 33 35 34 37 38 39 39 38 38
25 22 23 23 23 23 22 21 21 22 23 23 24 24 24 25 25 24 25 24 24 25 26 24 28 28 28 30 32 33 35 37 37 38 39 38 38 39
23 24 23 23 24 23 22 21 21 22 21 22 22 23 22 22 23 24 22 21 20 22 24 24 24 25 27 28 31 33 33 32 35 37 34 32 35 37
22 20 21 21 21 21 20 20 20 21 21 21 22 20 20 21 22 23 24 20 20 20 25 24 23 25 24 25 28 28 30 31 32 33 34 35 35 35
20 19 19 19 19 20 19 19 19 20 20 20 19 19 20 21 21 22 22 23 22 22 24 25 24 24 26 24 27 28 28 29 31 32 34 35 35 38
18 18 18 18 17 18 18 18 18 18 19 18 17 17 18 19 20 20 21 22 23 23 24 24 24 25 24 24 24 27 29 29 29 29 30 31 33 33
18 16 16 16 15 16 16 16 17 16 16 15 15 16 18 18 19 19 19 19 19 20 21 23 24 24 25 24 24 25 27 28 29 29 29 30 30 32
16 15 14 14 14 14 14 15 15 15 15 14 15 16 15 16 16 17 16 17 17 17 18 20 22 22 22 23 24 23 25 27 28 29 30 30 31 33
13 12 11 11 11 12 12 12 13 13 12 13 13 13 13 14 14 15 14 15 15 15 15 17 18 20 21 21 21 22 23 25 27 30 31 31 32 31
10 10 9 10 10 10 10 10 10 11 11 11 11 11 11 12 12 12 13 14 14 14 14 15 16 17 17 19 23 22 24 27 29 31 31 30 30 32
9 9 8 9 9 9 10 9 9 10 10 10 10 10 10 11 11 11 12 13 12 12 13 14 15 16 15 14 18 23 23 27 27 29 31 31 30 32
8 8 8 9 9 9 9 9 9 9 9 9 9 9 10 11 10 10 10 10 11 11 11 13 15 17 17 17 19 20 22 23 24 26 30 31 32 34
8 8 9 9 9 9 9 9 9 9 9 10 10 10 9 9 8 8 9 9 10 11 11 12 15 17 20 21 19 19 22 26 29 31 31 30 29 29
7 7 8 8 9 9 9 9 9 9 9 8 8 8 9 9 8 9 9 9 10 11 12 13 15 17 19 20 20 22 27 30 30 32 32 32 28 25
7 8 8 8 9 9 8 8 9 8 8 9 8 8 9 8 9 10 10 10 11 11 12 13 15 18 20 22 24 27 30 30 29 27 27 30 30 31